sat.trackr.live / text

‹ back to catalog

STARLINK-6299

NORAD 57358 · 2023-099AG

PAYLOAD ACTIVE UNKNOWN

§ Identity

Operator
Country
US
Launch date
2023-07-16
Launch site
AFETR
Launch vehicle
Mass (kg)
RCS (m²)

Purposes: comms

External: N2YO · Heavens-Above · Gunter

§ Orbital elements

Epoch: 2026-05-25T04:30:39.799296Z

Period
94.27 min
Inclination
43.0027°
Eccentricity
0.0001173
Mean motion
15.27577114 rev/d
Perigee alt
482.3 km
Apogee alt
483.9 km
Semi-major
6,861.2 km
B*
3.0478e-5
RAAN
169.2490°
Arg perigee
295.2878°
Mean anomaly
64.7852°
Rev number
15,864

§ Raw data

STARLINK-62991 57358U 23099AG  26145.18796064  .00000577  00000+0  30478-4 0  99942 57358  43.0027 169.2490 0001173 295.2878  64.7852 15.27577114158646

JSON: /api/v1/satellites/57358 · /tle

For live sub-satellite position, see the globe view (requires WebGL).

§ Visibility from observer

Set your observer location to see the next 7 days of passes ≥ 10°. The values pass through the URL so the page stays shareable.

No JS? Fill the form by hand. The geolocation button needs JavaScript.